| time (UTC) | temp C | wind direction | speed KPH | gust KPH | rain 1hr cm | rain 24hr cm | rain mn cm | humidity % | barometer mb |
| 20260510180012 | 25 | 109 | 6.4 | 11.3 | 0.00 | 0.00 | 0.00 | 100 | 1016.2 |
| 20260510174513 | 24 | 109 | 1.6 | 11.3 | 0.00 | 0.00 | 0.00 | 100 | 1016.6 |
| 20260510173003 | 23 | 111 | 4.8 | 11.3 | 0.00 | 0.00 | 0.00 | 100 | 1016.7 |
| 20260510171542 | 23 | 113 | 6.4 | 12.9 | 0.00 | 0.00 | 0.00 | 100 | 1016.9 |
| 20260510170035 | 23 | 105 | 3.2 | 11.3 | 0.00 | 0.00 | 0.00 | 100 | 1017.0 |
| 20260510164546 | 23 | 112 | 4.8 | 11.3 | 0.00 | 0.00 | 0.00 | 100 | 1017.1 |
| 20260510163048 | 22 | 112 | 6.4 | 11.3 | 0.00 | 0.00 | 0.00 | 100 | 1017.0 |
| 20260510161555 | 22 | 103 | 3.2 | 11.3 | 0.00 | 0.00 | 0.00 | 100 | 1017.0 |
| 20260510161502 | 22 | 108 | 3.2 | 11.3 | 0.00 | 0.00 | 0.00 | 100 | 1016.9 |
| 20260510160059 | 21 | 106 | 6.4 | 9.7 | 0.00 | 0.00 | 0.00 | 100 | 1017.0 |
| 20260510154548 | 20 | 114 | 3.2 | 8.0 | 0.00 | 0.00 | 0.00 | 100 | 1016.9 |
| 20260510153035 | 20 | 107 | 3.2 | 6.4 | 0.00 | 0.00 | 0.00 | 100 | 1017.0 |
| 20260510151555 | 19 | 91 | 1.6 | 6.4 | 0.00 | 0.00 | 0.00 | 100 | 1016.9 |
| 20260510150052 | 18 | 107 | 3.2 | 8.0 | 0.00 | 0.00 | 0.00 | 100 | 1016.8 |
| 20260510144507 | 18 | 118 | 3.2 | 6.4 | 0.00 | 0.00 | 0.00 | 100 | 1016.8 |
| 20260510143039 | 18 | 124 | 1.6 | 6.4 | 0.00 | 0.00 | 0.00 | 100 | 1016.9 |
| 20260510141550 | 18 | 114 | 1.6 | 4.8 | 0.00 | 0.00 | 0.00 | 100 | 1016.9 |
| 20260510140011 | 18 | 111 | 0.0 | 6.4 | 0.00 | 0.00 | 0.00 | 100 | 1016.6 |
| 20260510134601 | 17 | 109 | 1.6 | 6.4 | 0.00 | 0.00 | 0.00 | 100 | 1016.4 |
| 20260510133103 | 17 | 118 | 1.6 | 6.4 | 0.00 | 0.00 | 0.00 | 100 | 1016.5 |
| 20260510131600 | 17 | 113 | 1.6 | 6.4 | 0.00 | 0.00 | 0.00 | 100 | 1016.6 |
| 20260510130026 | 16 | 114 | 3.2 | 6.4 | 0.00 | 0.00 | 0.00 | 100 | 1016.5 |
| 20260510124511 | 16 | 113 | 0.0 | 3.2 | 0.00 | 0.00 | 0.00 | 100 | 1016.4 |
| 20260510123029 | 16 | 112 | 3.2 | 6.4 | 0.00 | 0.00 | 0.00 | 100 | 1016.3 |
| 20260510121600 | 16 | 114 | 0.0 | 0.0 | 0.00 | 0.00 | 0.00 | 100 | 1016.2 |
| 20260510120008 | 16 | 114 | 0.0 | 0.0 | 0.00 | 0.00 | 0.00 | 100 | 1016.1 |
| 20260510114530 | 15 | 112 | 0.0 | 3.2 | 0.00 | 0.00 | 0.00 | 100 | 1015.7 |
| 20260510113056 | 15 | 112 | 0.0 | 3.2 | 0.00 | 0.00 | 0.00 | 100 | 1015.5 |
| 20260510111557 | 15 | 112 | 0.0 | 0.0 | 0.00 | 0.00 | 0.00 | 100 | 1015.2 |
| 20260510110032 | 15 | 112 | 0.0 | 0.0 | 0.00 | 0.00 | 0.00 | 100 | 1015.0 |
| 20260510104524 | 15 | 112 | 0.0 | 0.0 | 0.00 | 0.00 | 0.00 | 100 | 1014.7 |
| 20260510103042 | 15 | 112 | 0.0 | 0.0 | 0.00 | 0.00 | 0.00 | 100 | 1014.4 |
| 20260510101554 | 15 | 112 | 0.0 | 0.0 | 0.00 | 0.00 | 0.00 | 100 | 1014.3 |
| 20260510100100 | 16 | 112 | 0.0 | 0.0 | 0.00 | 0.00 | 0.00 | 100 | 1014.0 |
| 20260510094532 | 16 | 112 | 0.0 | 0.0 | 0.00 | 0.00 | 0.00 | 100 | 1013.7 |
| 20260510093024 | 16 | 112 | 0.0 | 0.0 | 0.00 | 0.00 | 0.00 | 100 | 1013.6 |
| 20260510091541 | 15 | 112 | 0.0 | 0.0 | 0.00 | 0.00 | 0.00 | 100 | 1013.5 |
| 20260510090038 | 15 | 112 | 0.0 | 0.0 | 0.00 | 0.00 | 0.00 | 100 | 1013.5 |
| 20260510084527 | 15 | 112 | 0.0 | 0.0 | 0.00 | 0.00 | 0.00 | 100 | 1013.3 |
| 20260510083015 | 15 | 112 | 0.0 | 0.0 | 0.00 | 0.00 | 0.00 | 100 | 1013.2 |
| 20260510081513 | 16 | 112 | 0.0 | 0.0 | 0.00 | 0.00 | 0.00 | 100 | 1013.3 |
| 20260510080008 | 16 | 112 | 0.0 | 0.0 | 0.00 | 0.00 | 0.00 | 100 | 1013.3 |
| 20260510074557 | 16 | 112 | 0.0 | 0.0 | 0.00 | 0.00 | 0.00 | 100 | 1013.0 |
| 20260510073050 | 16 | 112 | 0.0 | 0.0 | 0.00 | 0.00 | 0.00 | 100 | 1012.9 |
| 20260510071511 | 16 | 112 | 0.0 | 0.0 | 0.00 | 0.00 | 0.00 | 100 | 1012.9 |
| 20260510070005 | 16 | 112 | 0.0 | 0.0 | 0.00 | 0.00 | 0.00 | 100 | 1012.8 |
| 20260510064510 | 17 | 112 | 0.0 | 0.0 | 0.00 | 0.00 | 0.00 | 100 | 1013.0 |
| 20260510063053 | 17 | 112 | 0.0 | 0.0 | 0.00 | 0.00 | 0.00 | 100 | 1013.1 |
| 20260510061547 | 17 | 112 | 0.0 | 0.0 | 0.00 | 0.00 | 0.00 | 100 | 1013.1 |
| 20260510060036 | 17 | 112 | 0.0 | 0.0 | 0.00 | 0.00 | 0.00 | 100 | 1013.1 |
| 20260510054548 | 17 | 112 | 0.0 | 0.0 | 0.00 | 0.00 | 0.00 | 100 | 1013.1 |
| 20260510053042 | 17 | 112 | 0.0 | 0.0 | 0.00 | 0.00 | 0.00 | 100 | 1013.0 |
| 20260510051544 | 18 | 112 | 0.0 | 0.0 | 0.00 | 0.00 | 0.00 | 100 | 1012.9 |
| 20260510044557 | 18 | 111 | 0.0 | 0.0 | 0.00 | 0.00 | 0.00 | 100 | 1013.0 |
| 20260510043020 | 19 | 111 | 0.0 | 0.0 | 0.00 | 0.00 | 0.00 | 100 | 1012.9 |
| 20260510041516 | 19 | 111 | 0.0 | 0.0 | 0.00 | 0.00 | 0.00 | 100 | 1013.0 |
| 20260510040010 | 19 | 110 | 0.0 | 0.0 | 0.00 | 0.00 | 0.00 | 100 | 1013.2 |
| 20260510034544 | 20 | 110 | 0.0 | 0.0 | 0.00 | 0.00 | 0.00 | 100 | 1013.3 |
| 20260510033028 | 20 | 110 | 0.0 | 4.8 | 0.00 | 0.00 | 0.00 | 100 | 1013.4 |
| 20260510031539 | 20 | 116 | 0.0 | 0.0 | 0.00 | 0.00 | 0.00 | 100 | 1013.4 |
| 20260510030057 | 20 | 116 | 0.0 | 3.2 | 0.00 | 0.00 | 0.00 | 100 | 1013.3 |
| 20260510024501 | 20 | 116 | 0.0 | 6.4 | 0.00 | 0.00 | 0.00 | 100 | 1013.1 |
| 20260510023047 | 20 | 116 | 1.6 | 4.8 | 0.00 | 0.00 | 0.00 | 100 | 1012.8 |
| 20260510021548 | 20 | 109 | 0.0 | 3.2 | 0.00 | 0.00 | 0.00 | 100 | 1012.6 |
| 20260510020008 | 20 | 109 | 0.0 | 0.0 | 0.00 | 0.00 | 0.00 | 100 | 1012.3 |
| 20260510014503 | 20 | 124 | 0.0 | 0.0 | 0.00 | 0.00 | 0.00 | 100 | 1012.0 |
| 20260510013101 | 20 | 124 | 0.0 | 0.0 | 0.00 | 0.00 | 0.00 | 100 | 1011.6 |
| 20260510011552 | 21 | 124 | 0.0 | 0.0 | 0.00 | 0.00 | 0.00 | 100 | 1011.3 |
| 20260510010055 | 22 | 123 | 0.0 | 0.0 | 0.00 | 0.00 | 0.00 | 100 | 1010.8 |
| 20260510004553 | 23 | 123 | 0.0 | 0.0 | 0.00 | 0.00 | 0.00 | 100 | 1010.6 |
| 20260510003048 | 24 | 122 | 0.0 | 0.0 | 0.00 | 0.00 | 0.00 | 21 | 1010.4 |
| 20260510001528 | 26 | 122 | 0.0 | 0.0 | 0.00 | 0.00 | 0.00 | 30 | 1010.4 |
| 20260510000034 | 26 | 121 | 0.0 | 0.0 | 0.00 | 0.00 | 0.00 | 38 | 1010.3 |
| 20260509234618 | 26 | 122 | 1.6 | 4.8 | 0.00 | 0.00 | 0.00 | 38 | 1010.2 |
| 20260509233100 | 26 | 130 | 0.0 | 3.2 | 0.00 | 0.00 | 0.00 | 37 | 1010.2 |
| 20260509233005 | 26 | 130 | 0.0 | 4.8 | 0.00 | 0.00 | 0.00 | 36 | 1010.2 |
| 20260509231516 | 26 | 144 | 3.2 | 6.4 | 0.00 | 0.00 | 0.00 | 37 | 1010.1 |
| 20260509230021 | 26 | 116 | 1.6 | 4.8 | 0.00 | 0.00 | 0.00 | 26 | 1010.2 |
| 20260509224514 | 25 | 111 | 3.2 | 6.4 | 0.00 | 0.00 | 0.00 | 31 | 1010.3 |
| 20260509223005 | 26 | 129 | 1.6 | 4.8 | 0.00 | 0.00 | 0.00 | 30 | 1010.1 |
| 20260509221603 | 25 | 137 | 0.0 | 6.4 | 0.00 | 0.00 | 0.00 | 24 | 1009.8 |
| 20260509220057 | 25 | 144 | 3.2 | 6.4 | 0.00 | 0.00 | 0.00 | 29 | 1009.9 |
| 20260509214516 | 25 | 146 | 1.6 | 6.4 | 0.00 | 0.00 | 0.00 | 24 | 1009.9 |
| 20260509213059 | 25 | 129 | 0.0 | 6.4 | 0.00 | 0.00 | 0.00 | 28 | 1009.9 |
| 20260509211559 | 25 | 99 | 0.0 | 4.8 | 0.00 | 0.00 | 0.00 | 25 | 1010.1 |
| 20260509210026 | 25 | 139 | 1.6 | 6.4 | 0.00 | 0.00 | 0.00 | 30 | 1010.2 |
| 20260509204549 | 25 | 139 | 3.2 | 11.3 | 0.00 | 0.00 | 0.00 | 33 | 1010.2 |
| 20260509203051 | 25 | 106 | 3.2 | 8.0 | 0.00 | 0.00 | 0.00 | 29 | 1010.4 |
| 20260509201520 | 25 | 152 | 4.8 | 8.0 | 0.00 | 0.00 | 0.00 | 27 | 1010.6 |
| 20260509200047 | 25 | 118 | 3.2 | 9.7 | 0.00 | 0.00 | 0.00 | 13 | 1010.5 |
| 20260509194535 | 25 | 112 | 4.8 | 12.9 | 0.00 | 0.00 | 0.00 | 16 | 1010.8 |
| 20260509193026 | 25 | 109 | 4.8 | 11.3 | 0.00 | 0.00 | 0.00 | 22 | 1010.8 |
| 20260509191518 | 25 | 137 | 1.6 | 12.9 | 0.00 | 0.00 | 0.00 | 22 | 1011.0 |
| 20260509190033 | 25 | 118 | 3.2 | 8.0 | 0.00 | 0.00 | 0.00 | 30 | 1010.8 |
| 20260509184547 | 25 | 112 | 4.8 | 11.3 | 0.00 | 0.00 | 0.00 | 27 | 1010.8 |
| 20260509183007 | 25 | 143 | 1.6 | 9.7 | 0.00 | 0.00 | 0.00 | 24 | 1011.0 |
| 20260509181518 | 24 | 128 | 4.8 | 16.1 | 0.00 | 0.00 | 0.00 | 12 | 1011.1 |